sat.trackr.live / text

‹ back to catalog

STARLINK-4040

NORAD 53151 · 2022-083V

PAYLOAD ACTIVE UNKNOWN

§ Identity

Operator
Country
US
Launch date
2022-07-17
Launch site
AFETR
Launch vehicle
Mass (kg)
RCS (m²)

Purposes: comms

External: N2YO · Heavens-Above · Gunter

§ Orbital elements

Epoch: 2026-05-25T02:37:20.787168Z

Period
95.44 min
Inclination
53.2132°
Eccentricity
0.0001359
Mean motion
15.08839604 rev/d
Perigee alt
538.8 km
Apogee alt
540.7 km
Semi-major
6,917.9 km
B*
-2.3722e-5
RAAN
181.0608°
Arg perigee
90.1510°
Mean anomaly
269.9638°
Rev number
21,289

§ Raw data

STARLINK-40401 53151U 22083V   26145.10926837 -.00000665  00000+0 -23722-4 0  99922 53151  53.2132 181.0608 0001359  90.1510 269.9638 15.08839604212890

JSON: /api/v1/satellites/53151 · /tle

For live sub-satellite position, see the globe view (requires WebGL).

§ Visibility from observer

Set your observer location to see the next 7 days of passes ≥ 10°. The values pass through the URL so the page stays shareable.

No JS? Fill the form by hand. The geolocation button needs JavaScript.